When you browse on this site, cookies collect data to enhance your experience and personalize the content and advertising you see.
Visit our Privacy Policy to learn more. By continuing to use the site, you agree to this use of cookies and data.
  • In Netherlands
  • List of Countries
  • For 7 days
  • Water Temperature
  • Weather Map
  • Weather Widgets
  • user-avatar
    Login

    Hourly Weather Lozovaya

    Today, 24 January, Friday

    Time Temperature Precipitation Wind Pressure Humidity
    00:00 -5°C° 0 mm 2 mps 743 mmHg 80%
    01:00 -6°C° 0 mm 3 mps 742 mmHg 81%
    02:00 -5°C° 0 mm 3 mps 742 mmHg 82%
    03:00 -5°C° 0.1 mm 3 mps 741 mmHg 84%
    04:00 -4°C° 0.1 mm 4 mps 740 mmHg 87%
    05:00 -4°C° 0.1 mm 4 mps 739 mmHg 90%
    06:00 -5°C° 0.2 mm 5 mps 738 mmHg 91%
    07:00 -5°C° 0.2 mm 5 mps 737 mmHg 93%
    08:00 -5°C° 0.2 mm 5 mps 737 mmHg 94%
    09:00 -4°C° 0 mm 5 mps 736 mmHg 92%
    10:00 -2°C° 0 mm 4 mps 736 mmHg 89%
    11:00 -1°C° 0 mm 4 mps 735 mmHg 87%
    12:00 0°C° 0.1 mm 4 mps 735 mmHg 90%
    13:00 0°C° 0.1 mm 4 mps 734 mmHg 93%
    14:00 0°C° 0.1 mm 4 mps 734 mmHg 96%
    15:00 0°C° 0.4 mm 4 mps 733 mmHg 96%
    16:00 0°C° 0.4 mm 5 mps 733 mmHg 95%
    17:00 0°C° 0.4 mm 5 mps 732 mmHg 95%
    18:00 0°C° 0 mm 5 mps 733 mmHg 93%
    19:00 -1°C° 0 mm 4 mps 733 mmHg 91%
    20:00 -2°C° 0 mm 4 mps 734 mmHg 89%
    21:00 -2°C° 0 mm 4 mps 734 mmHg 90%
    22:00 -1°C° 0 mm 3 mps 734 mmHg 91%
    23:00 -2°C° 0 mm 3 mps 734 mmHg 91%

    Tomorrow, 25 January, Saturday

    Time Temperature Precipitation Wind Pressure Humidity
    00:00 -2°C° 0 mm 3 mps 734 mmHg 91%
    01:00 -3°C° 0 mm 4 mps 733 mmHg 90%
    02:00 -3°C° 0 mm 4 mps 733 mmHg 90%
    03:00 -2°C° 0 mm 4 mps 733 mmHg 89%
    04:00 -2°C° 0 mm 5 mps 733 mmHg 87%
    05:00 -2°C° 0 mm 5 mps 732 mmHg 86%
    06:00 -2°C° 0 mm 5 mps 732 mmHg 84%
    07:00 -2°C° 0 mm 5 mps 732 mmHg 83%
    08:00 -1°C° 0 mm 5 mps 732 mmHg 81%
    09:00 -1°C° 0.3 mm 5 mps 731 mmHg 82%
    10:00 -2°C° 0.3 mm 6 mps 731 mmHg 82%
    11:00 -2°C° 0.3 mm 6 mps 730 mmHg 83%
    12:00 -3°C° 0.3 mm 6 mps 730 mmHg 77%
    13:00 -3°C° 0.3 mm 6 mps 730 mmHg 71%
    14:00 -3°C° 0.3 mm 6 mps 731 mmHg 65%
    15:00 -4°C° 0 mm 6 mps 731 mmHg 69%
    16:00 -4°C° 0 mm 5 mps 732 mmHg 73%
    17:00 -5°C° 0 mm 5 mps 732 mmHg 77%
    18:00 -5°C° 0 mm 5 mps 733 mmHg 79%
    19:00 -5°C° 0 mm 5 mps 733 mmHg 80%
    20:00 -5°C° 0 mm 5 mps 734 mmHg 82%
    21:00 -5°C° 0 mm 5 mps 734 mmHg 82%
    22:00 -5°C° 0 mm 6 mps 735 mmHg 82%
    23:00 -5°C° 0 mm 6 mps 736 mmHg 82%

    Day after tomorrow, 26 January, Sunday

    Time Temperature Precipitation Wind Pressure Humidity
    00:00 -6°C° 0 mm 5 mps 737 mmHg 82%
    01:00 -6°C° 0 mm 5 mps 738 mmHg 83%
    02:00 -6°C° 0 mm 5 mps 739 mmHg 83%
    03:00 -6°C° 0 mm 5 mps 739 mmHg 82%
    04:00 -6°C° 0 mm 5 mps 740 mmHg 82%
    05:00 -6°C° 0 mm 5 mps 741 mmHg 81%
    06:00 -7°C° 0 mm 4 mps 742 mmHg 81%
    07:00 -7°C° 0 mm 4 mps 742 mmHg 82%
    08:00 -7°C° 0 mm 4 mps 743 mmHg 82%
    09:00 -7°C° 0 mm 4 mps 744 mmHg 79%
    10:00 -5°C° 0 mm 4 mps 744 mmHg 76%
    11:00 -4°C° 0 mm 4 mps 745 mmHg 72%
    12:00 -4°C° 0 mm 4 mps 745 mmHg 72%
    13:00 -4°C° 0 mm 4 mps 745 mmHg 72%
    14:00 -2°C° 0 mm 3 mps 745 mmHg 71%
    15:00 -4°C° 0 mm 3 mps 744 mmHg 75%
    16:00 -4°C° 0 mm 4 mps 744 mmHg 80%
    17:00 -4°C° 0 mm 4 mps 743 mmHg 84%
    18:00 -4°C° 0.3 mm 4 mps 743 mmHg 87%
    19:00 -3°C° 0.3 mm 4 mps 742 mmHg 91%
    20:00 -4°C° 0.3 mm 5 mps 742 mmHg 94%
    21:00 -2°C° 0.4 mm 5 mps 742 mmHg 94%
    22:00 -1°C° 0.4 mm 5 mps 741 mmHg 95%
    23:00 +1°C° 0.4 mm 5 mps 741 mmHg 95%

    27 January, Monday

    Time Temperature Precipitation Wind Pressure Humidity
    00:00 +1°C° 0.2 mm 4 mps 741 mmHg 95%
    01:00 +1°C° 0.2 mm 4 mps 741 mmHg 95%
    02:00 +1°C° 0.2 mm 4 mps 741 mmHg 95%
    03:00 +1°C° 0.4 mm 4 mps 742 mmHg 96%
    04:00 +1°C° 0.4 mm 3 mps 742 mmHg 97%
    05:00 +1°C° 0.4 mm 3 mps 742 mmHg 97%
    06:00 +2°C° 0.6 mm 2 mps 743 mmHg 97%
    07:00 +1°C° 0.6 mm 2 mps 743 mmHg 97%
    08:00 -1°C° 0.6 mm 2 mps 743 mmHg 97%
    09:00 -1°C° 0.5 mm 2 mps 743 mmHg 97%
    10:00 -1°C° 0.5 mm 2 mps 744 mmHg 97%
    11:00 -1°C° 0.5 mm 2 mps 744 mmHg 97%
    12:00 -1°C° 0.4 mm 2 mps 744 mmHg 97%
    13:00 -1°C° 0.4 mm 2 mps 744 mmHg 97%
    14:00 -1°C° 0.4 mm 2 mps 744 mmHg 97%
    15:00 -1°C° 0.3 mm 2 mps 744 mmHg 97%
    16:00 -1°C° 0.3 mm 2 mps 744 mmHg 97%
    17:00 -1°C° 0.3 mm 2 mps 744 mmHg 97%
    18:00 0°C° 0.2 mm 1 mps 744 mmHg 97%
    19:00 0°C° 0.2 mm 1 mps 744 mmHg 97%
    20:00 0°C° 0.2 mm 1 mps 744 mmHg 97%
    21:00 0°C° 0.2 mm 1 mps 744 mmHg 97%
    22:00 0°C° 0.2 mm 1 mps 744 mmHg 97%
    23:00 0°C° 0.2 mm 1 mps 744 mmHg 97%

    28 January, Tuesday

    Time Temperature Precipitation Wind Pressure Humidity
    00:00 0°C° 0.4 mm 1 mps 744 mmHg 97%
    01:00 0°C° 0.4 mm 1 mps 743 mmHg 97%
    02:00 +1°C° 0.4 mm 1 mps 743 mmHg 98%
    03:00 +1°C° 0.4 mm 1 mps 743 mmHg 98%
    04:00 +1°C° 0.4 mm 1 mps 743 mmHg 98%
    05:00 -1°C° 0.4 mm 2 mps 743 mmHg 98%
    06:00 -1°C° 0.2 mm 2 mps 743 mmHg 98%
    07:00 -1°C° 0.2 mm 2 mps 742 mmHg 98%
    08:00 -1°C° 0.2 mm 2 mps 742 mmHg 98%
    09:00 -1°C° 0.2 mm 2 mps 742 mmHg 98%
    10:00 -1°C° 0.2 mm 2 mps 742 mmHg 98%
    11:00 -1°C° 0.2 mm 2 mps 742 mmHg 98%
    12:00 -1°C° 0.1 mm 2 mps 742 mmHg 97%
    13:00 -1°C° 0.1 mm 2 mps 741 mmHg 97%
    14:00 -1°C° 0.1 mm 3 mps 741 mmHg 97%
    15:00 -1°C° 0.1 mm 3 mps 741 mmHg 97%
    16:00 -1°C° 0.1 mm 2 mps 741 mmHg 97%
    17:00 -1°C° 0.1 mm 2 mps 741 mmHg 97%
    18:00 -1°C° 0.1 mm 3 mps 740 mmHg 97%
    19:00 -1°C° 0.1 mm 3 mps 740 mmHg 97%
    20:00 -1°C° 0.1 mm 3 mps 740 mmHg 96%
    21:00 -1°C° 0 mm 3 mps 739 mmHg 96%
    22:00 -1°C° 0 mm 3 mps 739 mmHg 96%
    23:00 -1°C° 0 mm 3 mps 739 mmHg 96%

    29 January, Wednesday

    Time Temperature Precipitation Wind Pressure Humidity
    00:00 0°C° 0 mm 3 mps 738 mmHg 96%
    01:00 -1°C° 0 mm 4 mps 737 mmHg 96%
    02:00 0°C° 0 mm 4 mps 737 mmHg 96%
    03:00 0°C° 0.2 mm 5 mps 736 mmHg 96%
    04:00 0°C° 0.2 mm 5 mps 735 mmHg 97%
    05:00 -1°C° 0.2 mm 6 mps 734 mmHg 97%
    06:00 0°C° 0.9 mm 5 mps 734 mmHg 97%
    07:00 0°C° 0.9 mm 5 mps 734 mmHg 97%
    08:00 0°C° 0.9 mm 5 mps 733 mmHg 97%
    09:00 0°C° 0.2 mm 5 mps 734 mmHg 93%
    10:00 0°C° 0.2 mm 5 mps 734 mmHg 89%
    11:00 0°C° 0.2 mm 4 mps 735 mmHg 85%
    12:00 0°C° 0 mm 4 mps 735 mmHg 84%
    13:00 0°C° 0 mm 4 mps 735 mmHg 83%
    14:00 0°C° 0 mm 4 mps 735 mmHg 82%
    15:00 -1°C° 0 mm 4 mps 736 mmHg 84%
    16:00 -1°C° 0 mm 4 mps 736 mmHg 87%
    17:00 -2°C° 0 mm 4 mps 737 mmHg 89%
    18:00 -2°C° 0 mm 4 mps 736 mmHg 87%
    19:00 -2°C° 0 mm 4 mps 736 mmHg 86%
    20:00 -2°C° 0 mm 4 mps 736 mmHg 84%
    21:00 -1°C° 0 mm 4 mps 736 mmHg 84%
    22:00 -1°C° 0 mm 4 mps 736 mmHg 84%
    23:00 -1°C° 0 mm 4 mps 736 mmHg 84%
    Show more